Location: Newark
(45.2500°N, 7.5833°E)
Time: 00:52:36
(UTC+00:00)

First-Move - Pass Details

Date: 21 February 2020
Orbit: 577 x 668 km, 97.6° (Epoch: 31 March)

Event Time Altitude Azimuth Distance (km) Brightness Sun altitude
Rises 04:24:06 0° 29° (NNE) 3,023 ? -21.5°
Reaches altitude 10° 04:27:09 10° 51° (NE) 2,103 ? -21.0°
Maximum altitude 04:30:02 16° 90° (E) 1,707 ? -20.5°
Drops below altitude 10° 04:32:54 10° 129° (SE) 2,083 ? -20.0°
Sets 04:35:53 0° 150° (SSE) 2,979 ? -19.5°
